FW3213 Weather Reports


time (UTC)temp
C
wind
direction
speed
KPH
gust
KPH
rain 1hr
cm
rain 24hr
cm
rain mn
cm
humidity
%
barometer
mb
20210801205229 17 247 0.0 0.0 0.00 0.89 0.00 48 1053.1
20210801204228 18 112 1.6 3.2 0.00 0.89 0.00 48 1053.3
20210801203230 17 224 1.6 4.8 0.00 0.89 0.00 51 1053.4
20210801202328 17 285 0.0 3.2 0.00 0.89 0.00 47 1053.4
20210801201330 17 163 1.6 3.2 0.00 0.91 0.00 48 1053.6
20210801201228 17 225 0.0 3.2 0.00 0.91 0.00 49 1053.5
20210801201128 17 285 0.0 0.0 0.00 0.91 0.00 49 1053.6
20210801200130 16 149 3.2 4.8 0.00 0.97 0.00 49 1053.8
20210801195129 16 135 3.2 3.2 0.00 1.02 0.00 48 1054.0
20210801194146 17 73 1.6 6.4 0.00 1.12 0.00 50 1054.1
20210801193128 16 247 0.0 1.6 0.00 1.19 0.00 47 1054.2
20210801193028 16 247 0.0 1.6 0.00 1.22 0.00 47 1054.3
20210801192928 16 255 0.0 0.0 0.00 1.22 0.00 47 1054.2
20210801192027 16 238 0.0 3.2 0.00 1.30 0.00 45 1054.3
20210801191029 15 119 3.2 4.8 0.00 1.37 0.00 47 1054.6
20210801190128 16 112 1.6 4.8 0.00 1.45 0.00 46 1054.7
20210801190031 16 112 1.6 4.8 0.00 1.45 0.00 46 1054.6
20210801185930 16 144 3.2 4.8 0.00 1.45 0.00 45 1054.6
20210801184927 16 202 1.6 3.2 0.00 1.50 0.00 45 1054.9
20210801184829 16 202 1.6 3.2 0.00 1.50 0.00 46 1054.9
20210801184730 16 125 0.0 1.6 0.00 1.50 0.00 46 1054.9
20210801183730 15 131 4.8 8.0 0.00 1.55 0.00 53 1055.1
20210801182744 14 112 3.2 6.4 0.00 1.60 0.00 55 1055.1
20210801181729 15 112 0.0 1.6 0.00 1.60 0.00 55 1055.1
20210801180827 14 120 0.0 3.2 0.00 1.63 0.00 62 1055.5
20210801175831 14 112 3.2 6.4 0.00 1.70 0.00 59 1055.4
20210801174927 15 297 3.2 6.4 0.00 1.73 0.00 63 1055.5
20210801173928 14 175 1.6 4.8 0.00 1.75 0.00 69 1055.7
20210801172927 13 202 1.6 3.2 0.00 1.78 0.00 72 1055.6
20210801171928 13 135 0.0 1.6 0.00 1.78 0.00 72 1055.4
20210801170928 13 135 0.0 3.2 0.00 1.78 0.00 74 1055.7
20210801165928 12 146 1.6 3.2 0.00 1.78 0.00 74 1055.7
20210801164944 12 112 1.6 6.4 0.00 1.78 0.00 79 1055.8
20210801163928 12 135 0.0 1.6 0.00 1.78 0.00 83 1055.7
20210801162929 12 135 0.0 1.6 0.00 1.78 0.00 84 1055.5
20210801161928 12 135 0.0 0.0 0.00 1.78 0.00 85 1055.5
20210801160929 12 135 0.0 0.0 0.00 1.78 0.00 86 1055.6
20210801155929 11 135 0.0 0.0 0.00 1.78 0.00 87 1055.5
20210801154928 11 135 1.6 3.2 0.00 1.78 0.00 89 1055.4
20210801153947 11 225 0.0 0.0 0.00 1.78 0.00 91 1055.2
20210801153028 11 225 0.0 0.0 0.00 1.78 0.00 93 1055.3
20210801152028 10 225 0.0 0.0 0.00 1.78 0.00 94 1055.1
20210801151028 10 247 0.0 1.6 0.00 1.78 0.00 95 1055.1
20210801150044 10 292 0.0 1.6 0.00 1.78 0.00 95 1055.3
20210801145928 10 292 0.0 1.6 0.00 1.78 0.00 95 1055.3
20210801145830 10 292 0.0 1.6 0.00 1.78 0.00 95 1055.2
20210801144828 10 292 0.0 1.6 0.00 1.78 0.00 95 1055.2
20210801144728 10 292 0.0 1.6 0.00 1.78 0.00 95 1055.2
20210801144643 10 292 0.0 1.6 0.00 1.78 0.00 95 1055.2
20210801143645 9 292 0.0 1.6 0.00 1.78 0.00 95 1055.3
20210801142729 9 292 0.0 0.0 0.00 1.78 0.00 95 1055.4
20210801141827 9 292 0.0 0.0 0.00 1.78 0.00 95 1055.4
20210801141728 9 292 0.0 0.0 0.00 1.78 0.00 95 1055.4
20210801141643 9 292 0.0 0.0 0.00 1.78 0.00 95 1055.3
20210801140645 8 292 0.0 0.0 0.00 1.78 0.00 95 1055.3
20210801135628 8 292 0.0 0.0 0.00 1.78 0.00 96 1055.3
20210801134628 8 292 0.0 0.0 0.00 1.78 0.00 96 1055.1
20210801133728 8 292 0.0 0.0 0.00 1.78 0.00 96 1055.1
20210801133645 8 292 0.0 0.0 0.00 1.78 0.00 96 1055.0
20210801132629 8 292 0.0 0.0 0.00 1.78 0.00 95 1055.0
20210801131728 8 292 0.0 0.0 0.00 1.78 0.00 95 1054.7
20210801131629 8 292 0.0 0.0 0.00 1.78 0.00 96 1054.7
20210801130728 8 292 0.0 0.0 0.00 1.78 0.00 96 1054.6
20210801125743 8 292 0.0 0.0 0.00 1.78 0.00 96 1054.4
20210801124827 8 292 0.0 0.0 0.00 1.78 0.00 96 1054.5
20210801123844 8 292 0.0 0.0 0.00 1.78 0.00 96 1054.5
20210801122927 8 292 0.0 0.0 0.00 1.78 0.00 96 1054.5
20210801121929 8 292 0.0 0.0 0.00 1.78 0.00 96 1054.5
20210801120945 8 292 0.0 0.0 0.00 1.78 0.00 96 1054.5
20210801115945 8 292 0.0 0.0 0.00 1.78 0.00 96 1054.4
20210801114943 8 292 0.0 0.0 0.00 1.78 0.00 96 1054.1
20210801113928 8 292 0.0 0.0 0.00 1.78 0.00 95 1054.1
20210801112928 8 292 0.0 0.0 0.00 1.78 0.00 96 1054.1
20210801112845 8 292 0.0 0.0 0.00 1.78 0.00 96 1054.1
20210801111830 8 292 0.0 0.0 0.00 1.78 0.00 96 1054.1
20210801110928 8 292 0.0 1.6 0.00 1.78 0.00 96 1054.1
20210801105944 8 292 0.0 0.0 0.00 1.78 0.00 96 1054.1
20210801105827 8 292 0.0 0.0 0.00 1.78 0.00 96 1054.0
20210801104827 8 292 1.6 1.6 0.00 1.78 0.00 96 1054.2
20210801103845 8 292 0.0 0.0 0.00 1.78 0.00 96 1054.1
20210801102928 8 292 0.0 0.0 0.00 1.78 0.00 96 1053.9
20210801101943 8 292 0.0 0.0 0.00 1.78 0.00 96 1053.9
20210801101027 8 292 0.0 0.0 0.00 1.78 0.00 96 1054.0
20210801100028 8 292 0.0 1.6 0.00 1.78 0.00 96 1054.0
20210801095046 8 292 1.6 1.6 0.00 1.78 0.00 96 1053.9
20210801094127 8 292 0.0 0.0 0.00 1.78 0.00 96 1054.0
20210801094026 8 292 0.0 0.0 0.00 1.78 0.00 95 1054.0
20210801093929 8 292 0.0 0.0 0.00 1.78 0.00 95 1054.0
20210801093027 8 292 0.0 0.0 0.00 1.78 0.00 96 1054.1
20210801092027 8 292 0.0 0.0 0.00 1.78 0.00 96 1054.1
20210801091931 8 292 0.0 0.0 0.00 1.78 0.00 96 1054.0
20210801090929 8 292 0.0 0.0 0.00 1.78 0.00 96 1053.8
20210801085928 8 292 0.0 0.0 0.00 1.78 0.00 96 1053.9
20210801085026 8 292 0.0 0.0 0.00 1.78 0.00 96 1053.7
20210801084928 8 292 0.0 0.0 0.00 1.78 0.00 96 1053.8
20210801084845 8 292 0.0 0.0 0.00 1.78 0.00 96 1053.8
20210801083829 8 292 0.0 0.0 0.00 1.78 0.00 95 1053.8
20210801083728 8 292 0.0 0.0 0.00 1.78 0.00 96 1053.7
20210801082728 8 112 0.0 0.0 0.00 1.78 0.00 96 1053.7
20210801081728 8 112 0.0 0.0 0.00 1.78 0.00 96 1053.8
20210801080828 8 112 0.0 0.0 0.00 1.78 0.00 96 1054.3
20210801080727 8 112 0.0 0.0 0.00 1.78 0.00 96 1054.3
20210801080627 8 112 0.0 0.0 0.00 1.78 0.00 96 1054.3
20210801075628 8 112 0.0 0.0 0.00 1.78 0.00 96 1054.4
20210801074645 8 112 0.0 1.6 0.00 1.78 0.00 96 1054.6
20210801073729 8 315 0.0 1.6 0.00 1.78 0.00 96 1054.7
20210801072827 8 315 4.8 4.8 0.00 1.78 0.00 96 1054.8
20210801071828 8 270 0.0 0.0 0.00 1.78 0.00 96 1055.1
20210801070828 8 270 0.0 0.0 0.00 1.78 0.00 96 1055.1
20210801070727 8 270 0.0 0.0 0.00 1.78 0.00 96 1055.1
20210801070642 8 270 0.0 0.0 0.00 1.78 0.00 96 1055.1
20210801065629 8 270 0.0 0.0 0.00 1.78 0.00 96 1055.1
20210801065527 8 270 0.0 0.0 0.00 1.78 0.00 96 1055.1
20210801065442 8 270 0.0 0.0 0.00 1.78 0.00 96 1055.1
20210801064426 8 270 0.0 0.0 0.00 1.78 0.00 96 1055.3
20210801064328 9 270 0.0 0.0 0.00 1.78 0.00 96 1055.3
20210801064227 9 270 0.0 0.0 0.00 1.78 0.00 96 1055.3
20210801063327 9 270 0.0 0.0 0.03 1.78 0.00 96 1055.2
20210801062344 9 270 0.0 0.0 0.03 1.78 0.00 96 1055.2
20210801061428 8 270 0.0 0.0 0.03 1.78 0.00 96 1055.1
20210801061326 8 270 0.0 0.0 0.03 1.78 0.00 96 1055.1
20210801060328 9 270 0.0 0.0 0.03 1.78 0.00 96 1055.1
20210801055413 9 247 0.0 0.0 0.05 1.78 1.78 96 1055.2
20210801054412 10 112 0.0 0.0 0.05 1.80 1.78 96 1055.2
20210801054313 10 112 0.0 0.0 0.05 1.80 1.78 96 1055.1
20210801054214 10 112 0.0 0.0 0.05 1.80 1.78 96 1055.1
20210801053215 10 112 3.2 4.8 0.05 1.78 1.75 96 1055.0
20210801053113 10 112 3.2 3.2 0.05 1.78 1.75 96 1054.9
20210801052128 10 337 0.0 0.0 0.08 1.78 1.75 96 1054.8
20210801051112 10 337 0.0 0.0 0.08 1.78 1.75 96 1054.9
20210801050211 10 337 0.0 0.0 0.10 1.78 1.75 96 1054.9
20210801050112 10 337 0.0 0.0 0.10 1.80 1.75 96 1054.9
20210801045130 10 337 0.0 0.0 0.10 1.78 1.73 95 1054.8
20210801044211 10 337 0.0 0.0 0.13 1.78 1.73 96 1054.8
20210801043212 10 337 0.0 0.0 0.13 1.75 1.70 96 1054.9
20210801043130 10 337 0.0 0.0 0.13 1.75 1.70 96 1054.9
20210801042114 10 337 0.0 0.0 0.10 1.75 1.68 96 1054.9
20210801042014 10 337 0.0 0.0 0.10 1.78 1.68 96 1054.9
20210801041914 10 337 0.0 0.0 0.10 1.78 1.68 95 1054.9
20210801040913 10 337 0.0 0.0 0.10 1.83 1.68 96 1054.8
20210801040011 10 337 0.0 0.0 0.08 1.88 1.65 96 1054.9
20210801035028 10 337 0.0 0.0 0.05 1.88 1.63 96 1054.9
20210801034913 10 337 0.0 0.0 0.05 1.88 1.63 96 1054.8
20210801033913 10 337 0.0 0.0 0.03 1.91 1.60 96 1055.0
20210801032914 11 337 0.0 0.0 0.00 1.91 1.57 96 1054.7
20210801032011 11 337 0.0 0.0 0.00 1.93 1.57 96 1054.7
20210801031013 11 337 0.0 0.0 0.00 1.96 1.57 96 1054.5
20210801030011 11 337 0.0 0.0 0.00 2.03 1.57 96 1054.4
20210801025014 11 337 0.0 0.0 0.00 2.16 1.57 96 1054.3
20210801024912 11 337 0.0 0.0 0.00 2.16 1.57 95 1054.3
20210801024818 11 337 0.0 0.0 0.00 2.16 1.57 95 1054.4
20210801023914 11 337 0.0 0.0 0.00 2.26 1.57 96 1054.2
20210801022913 11 337 0.0 0.0 0.00 2.31 1.57 95 1054.1
20210801021913 11 337 0.0 0.0 0.00 2.31 1.57 95 1054.0
20210801021812 11 337 0.0 0.0 0.00 2.31 1.57 95 1054.0
20210801020911 11 337 0.0 0.0 0.00 2.31 1.57 95 1054.0
20210801015912 11 337 0.0 0.0 0.03 2.31 1.57 95 1054.0
20210801015012 11 337 0.0 0.0 0.03 2.31 1.57 95 1053.8
20210801014012 11 337 0.0 0.0 0.03 2.31 1.57 95 1053.8
20210801013012 11 337 0.0 0.0 0.05 2.31 1.57 95 1053.8
20210801012031 11 337 0.0 0.0 0.08 2.31 1.57 95 1053.8
20210801011928 11 337 0.0 0.0 0.08 2.31 1.57 95 1053.8
20210801011012 11 337 0.0 0.0 0.08 2.31 1.57 95 1053.8
20210801010011 11 337 0.0 0.0 0.10 2.29 1.55 95 1054.0
20210801005013 11 337 0.0 0.0 0.15 2.29 1.55 95 1053.9
20210801004911 11 337 0.0 0.0 0.15 2.29 1.55 95 1053.8
20210801004829 11 337 0.0 0.0 0.15 2.29 1.55 95 1053.8
20210801003912 11 337 0.0 0.0 0.20 2.29 1.55 95 1053.8
20210801003827 11 337 0.0 0.0 0.20 2.29 1.55 95 1053.8
20210801003714 11 337 0.0 0.0 0.20 2.29 1.55 94 1053.8
20210801002714 11 337 0.0 0.0 0.25 2.26 1.52 94 1053.7
20210801001711 11 337 0.0 0.0 0.30 2.24 1.50 94 1053.6
20210801000713 11 337 0.0 0.0 0.38 2.21 1.45 94 1053.7
20210801000628 11 337 0.0 0.0 0.38 2.21 1.45 94 1053.7
20210731235711 11 337 0.0 0.0 0.48 2.16 1.42 94 1053.7
20210731234727 11 337 0.0 0.0 0.51 2.13 1.37 94 1053.7
20210731233812 11 315 0.0 0.0 0.46 2.08 1.35 94 1053.8
20210731233727 11 315 0.0 0.0 0.46 2.08 1.35 94 1053.8
20210731232712 11 315 0.0 0.0 0.38 2.01 1.27 94 1053.8
20210731231714 11 315 0.0 0.0 0.30 1.93 1.17 94 1053.8
20210731230811 11 315 0.0 0.0 0.23 1.85 1.09 92 1053.9
20210731230711 11 315 0.0 0.0 0.20 1.83 1.09 93 1053.9
20210731225713 12 315 0.0 0.0 0.05 1.68 0.94 93 1053.8
20210731224729 12 315 0.0 0.0 0.00 1.63 0.89 92 1053.8
20210731223812 12 315 0.0 0.0 0.00 1.63 0.89 91 1053.9
20210731223713 12 315 0.0 0.0 0.00 1.63 0.89 91 1053.8
20210731223614 12 315 0.0 0.0 0.00 1.63 0.89 91 1053.8
20210731222611 12 292 0.0 0.0 0.00 1.63 0.89 90 1053.8
20210731222513 12 292 0.0 1.6 0.00 1.63 0.89 89 1053.8
20210731221612 12 202 0.0 0.0 0.00 1.63 0.89 88 1053.8
20210731220611 12 180 0.0 0.0 0.00 1.63 0.89 86 1053.7
20210731215613 13 180 0.0 0.0 0.00 1.63 0.89 86 1053.7
20210731215514 13 180 0.0 0.0 0.00 1.63 0.89 86 1053.7
20210731214528 13 168 0.0 1.6 0.00 1.63 0.89 86 1053.7
20210731213527 13 135 0.0 1.6 0.00 1.63 0.89 86 1053.4
20210731212612 14 177 1.6 3.2 0.00 1.63 0.89 87 1053.2
20210731211612 15 149 0.0 1.6 0.03 1.63 0.89 88 1053.2
20210731210611 15 260 0.0 1.6 0.05 1.63 0.89 88 1053.2
20210731205612 15 202 0.0 0.0 0.10 1.63 0.89 90 1053.3
20210731205527 15 202 0.0 0.0 0.10 1.63 0.89 90 1053.3